Location: Hertford
(51.8000°N, 0.0667°W)
Time: 15:07:04
(UTC+00:00)

Landsat 7 - Pass Details

Date: 18 September 2020
Orbit: 701 x 703 km, 98.1° (Epoch: 28 October)

Event Time Altitude Azimuth Distance (km) Brightness Sun altitude
Exits shadow 21:04:39 78° 238° (WSW) 726 3.8 -25.9°
Maximum altitude 21:04:45 79° 255° (WSW) 725 3.8 -25.9°
Drops below altitude 10° 21:09:33 10° 343° (NNW) 2,185 7.1 -26.5°
Sets 21:11:49 0° 345° (NNW) 3,108 8.0 -26.7°
